Stündliche Wetter Holmy

Heute, 22 Juni, Dienstag

Zeit Temperatur Niederschläge Wind Luftdruck Luftfeuchtigkeit
00:00 +21°C° 0 mm 1 m/S 748 mmHg 74%
01:00 +21°C° 0 mm 1 m/S 748 mmHg 76%
02:00 +20°C° 0 mm 1 m/S 748 mmHg 78%
03:00 +21°C° 0 mm 1 m/S 748 mmHg 79%
04:00 +22°C° 0 mm 1 m/S 748 mmHg 79%
05:00 +22°C° 0 mm 1 m/S 748 mmHg 80%
06:00 +24°C° 0 mm 1 m/S 748 mmHg 73%
07:00 +26°C° 0 mm 1 m/S 748 mmHg 66%
08:00 +28°C° 0 mm 2 m/S 748 mmHg 57%
09:00 +29°C° 0 mm 2 m/S 748 mmHg 52%
10:00 +30°C° 0 mm 2 m/S 748 mmHg 46%
11:00 +32°C° 0 mm 2 m/S 748 mmHg 40%
12:00 +32°C° 0 mm 2 m/S 748 mmHg 38%
13:00 +34°C° 0 mm 2 m/S 748 mmHg 37%
14:00 +34°C° 0 mm 2 m/S 748 mmHg 35%
15:00 +34°C° 0 mm 2 m/S 747 mmHg 38%
16:00 +34°C° 0 mm 2 m/S 747 mmHg 42%
17:00 +34°C° 0 mm 2 m/S 747 mmHg 46%
18:00 +30°C° 0 mm 2 m/S 747 mmHg 55%
19:00 +28°C° 0 mm 2 m/S 747 mmHg 63%
20:00 +26°C° 0 mm 2 m/S 747 mmHg 72%
21:00 +25°C° 0 mm 2 m/S 747 mmHg 74%
22:00 +24°C° 0 mm 1 m/S 747 mmHg 76%
23:00 +23°C° 0 mm 1 m/S 747 mmHg 77%

Morgen, 23 Juni, Mittwoch

Zeit Temperatur Niederschläge Wind Luftdruck Luftfeuchtigkeit
00:00 +23°C° 0 mm 1 m/S 747 mmHg 79%
01:00 +22°C° 0 mm 1 m/S 748 mmHg 80%
02:00 +22°C° 0 mm 1 m/S 748 mmHg 81%
03:00 +22°C° 0 mm 1 m/S 748 mmHg 81%
04:00 +23°C° 0 mm 1 m/S 748 mmHg 80%
05:00 +23°C° 0 mm 1 m/S 748 mmHg 80%
06:00 +25°C° 0 mm 1 m/S 748 mmHg 73%
07:00 +27°C° 0 mm 2 m/S 748 mmHg 66%
08:00 +29°C° 0 mm 2 m/S 748 mmHg 59%
09:00 +31°C° 0 mm 2 m/S 748 mmHg 53%
10:00 +32°C° 0 mm 2 m/S 748 mmHg 47%
11:00 +34°C° 0 mm 2 m/S 748 mmHg 41%
12:00 +35°C° 0 mm 2 m/S 748 mmHg 38%
13:00 +35°C° 0 mm 2 m/S 748 mmHg 35%
14:00 +36°C° 0 mm 2 m/S 748 mmHg 32%
15:00 +35°C° 0 mm 2 m/S 748 mmHg 35%
16:00 +35°C° 0 mm 2 m/S 748 mmHg 38%
17:00 +34°C° 0 mm 2 m/S 748 mmHg 42%
18:00 +31°C° 0 mm 2 m/S 747 mmHg 50%
19:00 +29°C° 0 mm 2 m/S 747 mmHg 58%
20:00 +26°C° 0 mm 2 m/S 747 mmHg 66%
21:00 +25°C° 0 mm 2 m/S 747 mmHg 68%
22:00 +25°C° 0 mm 2 m/S 747 mmHg 69%
23:00 +24°C° 0 mm 1 m/S 747 mmHg 71%

übermorgen, 24 Juni, Donnerstag

Zeit Temperatur Niederschläge Wind Luftdruck Luftfeuchtigkeit
00:00 +23°C° 0 mm 2 m/S 747 mmHg 72%
01:00 +23°C° 0 mm 2 m/S 748 mmHg 73%
02:00 +21°C° 0 mm 2 m/S 748 mmHg 75%
03:00 +23°C° 0 mm 2 m/S 748 mmHg 74%
04:00 +23°C° 0 mm 2 m/S 748 mmHg 74%
05:00 +23°C° 0 mm 1 m/S 748 mmHg 74%
06:00 +26°C° 0 mm 2 m/S 748 mmHg 67%
07:00 +28°C° 0 mm 2 m/S 748 mmHg 59%
08:00 +30°C° 0 mm 2 m/S 748 mmHg 52%
09:00 +31°C° 0 mm 2 m/S 747 mmHg 47%
10:00 +32°C° 0 mm 2 m/S 747 mmHg 42%
11:00 +35°C° 0 mm 2 m/S 747 mmHg 37%
12:00 +35°C° 0 mm 2 m/S 747 mmHg 35%
13:00 +36°C° 0 mm 3 m/S 747 mmHg 33%
14:00 +36°C° 0 mm 3 m/S 747 mmHg 32%
15:00 +35°C° 0 mm 3 m/S 746 mmHg 34%
16:00 +35°C° 0 mm 3 m/S 746 mmHg 37%
17:00 +34°C° 0 mm 3 m/S 745 mmHg 40%
18:00 +31°C° 0 mm 2 m/S 745 mmHg 49%
19:00 +28°C° 0 mm 2 m/S 745 mmHg 58%
20:00 +26°C° 0 mm 2 m/S 745 mmHg 67%
21:00 +25°C° 0 mm 2 m/S 745 mmHg 69%
22:00 +24°C° 0 mm 3 m/S 745 mmHg 72%
23:00 +22°C° 0 mm 3 m/S 746 mmHg 74%

25 Juni, Freitag

Zeit Temperatur Niederschläge Wind Luftdruck Luftfeuchtigkeit
00:00 +21°C° 0 mm 2 m/S 746 mmHg 79%
01:00 +20°C° 0 mm 2 m/S 745 mmHg 84%
02:00 +20°C° 0 mm 1 m/S 745 mmHg 89%
03:00 +21°C° 0.2 mm 1 m/S 745 mmHg 88%
04:00 +21°C° 0.2 mm 1 m/S 745 mmHg 86%
05:00 +22°C° 0.2 mm 1 m/S 745 mmHg 85%
06:00 +24°C° 0 mm 1 m/S 745 mmHg 76%
07:00 +26°C° 0 mm 1 m/S 745 mmHg 68%
08:00 +29°C° 0 mm 2 m/S 745 mmHg 59%
09:00 +30°C° 0 mm 2 m/S 745 mmHg 54%
10:00 +32°C° 0 mm 2 m/S 745 mmHg 49%
11:00 +34°C° 0 mm 2 m/S 745 mmHg 44%
12:00 +34°C° 0 mm 2 m/S 744 mmHg 46%
13:00 +32°C° 0 mm 2 m/S 744 mmHg 48%
14:00 +32°C° 0 mm 2 m/S 744 mmHg 49%
15:00 +30°C° 1.3 mm 3 m/S 743 mmHg 60%
16:00 +27°C° 1.3 mm 3 m/S 743 mmHg 71%
17:00 +25°C° 1.3 mm 4 m/S 742 mmHg 82%
18:00 +22°C° 3 mm 4 m/S 743 mmHg 86%
19:00 +21°C° 3 mm 4 m/S 743 mmHg 91%
20:00 +20°C° 3 mm 3 m/S 744 mmHg 96%
21:00 +20°C° 0.2 mm 3 m/S 743 mmHg 96%
22:00 +20°C° 0.2 mm 3 m/S 743 mmHg 96%
23:00 +19°C° 0.2 mm 3 m/S 743 mmHg 96%

26 Juni, Samstag

Zeit Temperatur Niederschläge Wind Luftdruck Luftfeuchtigkeit
00:00 +19°C° 0 mm 2 m/S 743 mmHg 97%
01:00 +19°C° 0 mm 1 m/S 743 mmHg 97%
02:00 +19°C° 0 mm 1 m/S 743 mmHg 97%
03:00 +19°C° 0.1 mm 1 m/S 743 mmHg 96%
04:00 +20°C° 0.1 mm 1 m/S 743 mmHg 95%
05:00 +21°C° 0.1 mm 1 m/S 743 mmHg 94%
06:00 +22°C° 0 mm 1 m/S 743 mmHg 86%
07:00 +24°C° 0 mm 1 m/S 743 mmHg 79%
08:00 +26°C° 0 mm 2 m/S 743 mmHg 71%
09:00 +27°C° 0 mm 1 m/S 743 mmHg 64%
10:00 +29°C° 0 mm 1 m/S 743 mmHg 58%
11:00 +31°C° 0 mm 1 m/S 743 mmHg 51%
12:00 +31°C° 0 mm 1 m/S 743 mmHg 49%
13:00 +32°C° 0 mm 1 m/S 742 mmHg 46%
14:00 +33°C° 0 mm 1 m/S 742 mmHg 44%
15:00 +31°C° 0.3 mm 1 m/S 742 mmHg 52%
16:00 +29°C° 0.3 mm 2 m/S 742 mmHg 59%
17:00 +28°C° 0.3 mm 3 m/S 741 mmHg 67%
18:00 +26°C° 1 mm 2 m/S 741 mmHg 74%
19:00 +24°C° 1 mm 2 m/S 741 mmHg 81%
20:00 +21°C° 1 mm 2 m/S 741 mmHg 88%
21:00 +21°C° 0.6 mm 2 m/S 741 mmHg 91%
22:00 +21°C° 0.6 mm 1 m/S 742 mmHg 93%
23:00 +20°C° 0.6 mm 1 m/S 742 mmHg 95%

27 Juni, Sonntag

Zeit Temperatur Niederschläge Wind Luftdruck Luftfeuchtigkeit
00:00 +20°C° 0 mm 1 m/S 742 mmHg 95%
01:00 +20°C° 0 mm 1 m/S 741 mmHg 96%
02:00 +20°C° 0 mm 1 m/S 741 mmHg 96%
03:00 +21°C° 0 mm 1 m/S 742 mmHg 95%
04:00 +19°C° 0 mm 0 m/S 742 mmHg 93%
05:00 +20°C° 0 mm 0 m/S 742 mmHg 92%
06:00 +21°C° 0 mm 0 m/S 742 mmHg 85%
07:00 +25°C° 0 mm 1 m/S 742 mmHg 78%
08:00 +27°C° 0 mm 1 m/S 742 mmHg 70%
09:00 +27°C° 0.5 mm 1 m/S 742 mmHg 70%
10:00 +28°C° 0.5 mm 1 m/S 742 mmHg 70%
11:00 +29°C° 0.5 mm 1 m/S 742 mmHg 69%
12:00 +29°C° 1.1 mm 1 m/S 742 mmHg 70%
13:00 +29°C° 1.1 mm 2 m/S 742 mmHg 71%
14:00 +28°C° 1.1 mm 2 m/S 742 mmHg 72%
15:00 +28°C° 1.2 mm 2 m/S 742 mmHg 76%
16:00 +27°C° 1.2 mm 2 m/S 742 mmHg 80%
17:00 +26°C° 1.2 mm 2 m/S 742 mmHg 83%
18:00 +25°C° 0.6 mm 2 m/S 742 mmHg 85%
19:00 +24°C° 0.6 mm 2 m/S 742 mmHg 88%
20:00 +23°C° 0.6 mm 2 m/S 742 mmHg 90%
21:00 +21°C° 0.1 mm 2 m/S 742 mmHg 91%
22:00 +20°C° 0.1 mm 2 m/S 742 mmHg 91%
23:00 +20°C° 0.1 mm 2 m/S 742 mmHg 92%
Mehr zeigen

Wir brauchen deine Erlaubnis

Meteoprog und unser Service Anbieter werden persönliche Daten aufbewahren, so wie Cookies, Geräte Bezeichnung oder ähnliche Technologien von deinem Gerät und Prozess, so wie Persönliche Daten Inhalte und Werbungen, genauso wie social Media und den Verkehr zu analysieren.

  • Aufbewahrung und/oder Zugang zu deiner Geräte Informationen.

    Cookies, Geräte Bezeichnung oder andere Informationen, können aufbewahrt oder Zugang zu deinem Gerät erhalten, für den Grund, der oben angegeben wird.

  • Personalisierte Werbung und Inhalte, Messungen, Einblick in das Publikum und Produkt Entwicklung.

    Werbungen und Inhalte können personalisiert werden, basierend auf ein Profil. Mehr Daten können besser personalisierte Werbungen und Inhalte hinzufügen. Werbung und Inhalte können gezeigt und gemessen werden. Einblicke über das Publikum, welche die Werbung gesehen haben und den Inhalt, können abgeleitet werden. So wie Daten können genutzt werden, um es zu verbessern oder die Benutzer Erfahrung zu verbessern das System und die Software.

Wenn du “Ich stimme zu” klickst, erlaubst du uns, die Cookies zu benutzen die Geräte Bezeichnung, den Web oder ähnliche Technologien zu benutzen. Deine Settings, können in deinem Gerät bei deinem Browser geändert werden.

Für den bestimmten Zweck, berechtigten Interessen beruhen darauf, mehr als auf den Inhalt. Du kannst mehr darüber in unseren Privaten und Cookie Politik lesen.